Weather reports worldwide

Advertisment
Werl, Germany (10424): temperature & dewpoint: 16.09.2018 23:00:00 - 22.09.2018 23:00:00 (CEST)Werl, Germany (10424): temperature 5cm & temperature -5cm: 16.09.2018 23:00:00 - 22.09.2018 23:00:00 (CEST)Werl, Germany (10424): temperature -20cm & temperature -100cm: 16.09.2018 23:00:00 - 22.09.2018 23:00:00 (CEST)Werl, Germany (10424): wind speed & gusts: 16.09.2018 23:00:00 - 22.09.2018 23:00:00 (CEST)Werl, Germany (10424): wind direction: 16.09.2018 23:00:00 - 22.09.2018 23:00:00 (CEST)Werl, Germany (10424): reduced air pressure: 16.09.2018 23:00:00 - 22.09.2018 23:00:00 (CEST)Werl, Germany (10424): visibility: 16.09.2018 23:00:00 - 22.09.2018 23:00:00 (CEST)Werl, Germany (10424): sunshine duration: 16.09.2018 23:00:00 - 22.09.2018 23:00:00 (CEST)Werl, Germany (10424): precipitation: 16.09.2018 23:00:00 - 22.09.2018 23:00:00 (CEST)
Date & Time tt [°C] td [°C] tt 5cm [°C] tt -5cm [°C] tt -20cm [°C] tt -100cm [°C] ff [km/h] ff [kn] fx [km/h] fx [kn] dd ppp [hPa] vv [km] sd [min] rr [mm]
22.09.2018 23:00:00 10,1 8,4 9,8 13,1 15,7 17,8 6 3 16 9 WSW 1019,4 17 0 0,3
22.09.2018 22:00:00 10,4 8,2 9,8 13,3 15,9 17,9 11 6 19 10 WSW 1019,6 18 0 0,4
22.09.2018 21:00:00 10,8 8,6 10,2 13,6 16,2 17,9 9 5 26 14 WSW 1019,6 48 0 0,4
22.09.2018 20:00:00 11,2 8,6 10,4 14,1 16,4 17,9 10 6 19 10 SW 1019,1 40 0 0,3
22.09.2018 19:00:00 11,7 8,7 10,9 14,7 16,6 17,9 13 7 24 13 SW 1019,4 20 0 0,2
22.09.2018 18:00:00 12,4 8,9 11,5 15,5 16,7 17,9 14 8 53 28 WSW 1019,2 19 0 1,3
22.09.2018 17:00:00 15,7 6,6 16,0 16,9 16,6 17,9 22 12 38 20 WSW 1018,6 70 0 0,0
22.09.2018 16:00:00 16,4 6,7 17,4 17,3 16,5 17,9 21 11 34 19 WSW 1018,7 60 0 0,0
22.09.2018 15:00:00 16,3 5,3 17,3 17,4 16,3 17,9 23 13 34 19 WSW 1019,2 63 0 0,0
22.09.2018 14:00:00 16,2 5,4 17,5 17,3 16,0 17,9 21 12 36 20 WSW 1019,4 55 2 0,0
22.09.2018 13:00:00 15,4 6,3 16,9 16,7 15,6 17,9 21 11 37 20 WSW 1019,7 59 25 0,0
22.09.2018 12:00:00 15,4 8,7 18,1 16,3 15,3 17,9 22 12 39 21 SW 1020,2 37 53 0,0
22.09.2018 11:00:00 14,1 8,5 15,3 14,7 15,1 17,9 21 11 32 17 SW 1020,3 39 46 0,0
22.09.2018 10:00:00 12,9 8,4 13,9 13,3 15,0 17,9 16 8 29 16 SW 1020,4 43 33 0,0
22.09.2018 09:00:00 11,9 8,0 11,9 12,1 15,1 17,9 15 8 25 14 SW 1019,9 40 25 0,0
22.09.2018 08:00:00 10,8 7,4 9,9 11,5 15,3 17,9 13 7 25 14 SW 1019,9 42 0 0,0
22.09.2018 07:00:00 10,5 7,3 9,4 11,6 15,6 17,9 14 8 25 14 SW 1019,3 43 0 0,0
22.09.2018 06:00:00 11,1 7,6 10,0 11,9 15,9 17,9 18 10 33 18 SW 1018,6 46 0 0,0
22.09.2018 05:00:00 11,2 7,8 10,0 12,3 16,2 17,9 19 10 31 17 WSW 1018,2 47 0 0,0
22.09.2018 04:00:00 11,0 7,7 9,9 12,8 16,4 17,9 19 11 41 22 WSW 1017,9 65 0 0,0
22.09.2018 03:00:00 11,3 8,3 10,0 13,3 16,7 17,9 18 10 49 27 SW 1017,1 45 0 2,2
22.09.2018 02:00:00 11,0 8,7 9,9 14,2 16,9 17,9 26 14 48 26 W 1016,8 2,3 0 1,2
22.09.2018 01:00:00 13,7 5,7 13,0 14,5 17,0 17,9 28 15 47 26 WSW 1015,6 56 0 0,0
22.09.2018 00:00:00 14,1 4,7 13,5 14,5 17,2 17,9 26 14 47 25 SW 1014,6 63 0 0,0
21.09.2018 23:00:00 14,3 4,7 13,1 14,7 17,5 17,8 25 14 42 23 WSW 1014,2 69 0 0,0
21.09.2018 22:00:00 13,7 4,3 12,5 14,7 17,8 17,8 17 9 36 19 WSW 1013,7 70 0 0,0
21.09.2018 21:00:00 13,3 3,2 11,5 14,9 18,1 17,8 16 9 34 19 SW 1012,8 70 0 0,0
21.09.2018 20:00:00 14,6 3,1 12,7 15,7 18,4 17,8 18 10 29 16 WSW 1011,8 70 0 0,0
21.09.2018 19:00:00 15,1 4,4 14,1 16,7 18,6 17,8 21 11 45 24 W 1011,0 70 11 0,0
21.09.2018 18:00:00 15,2 6,1 14,6 17,6 18,7 17,8 31 17 51 28 W 1010,4 70 36 0,0
21.09.2018 17:00:00 16,7 7,2 18,1 17,6 18,8 17,8 28 15 58 32 W 1009,4 48 8 0,0
21.09.2018 16:00:00 16,0 10,4 16,3 18,0 18,9 17,8 27 15 41 22 WSW 1008,8 44 0 0,0
21.09.2018 15:00:00 15,4 11,0 15,9 18,1 19,0 17,8 24 13 39 21 SW 1008,2 42 0 0,0
21.09.2018 14:00:00 14,5 10,8 15,0 18,1 19,2 17,8 20 11 39 21 SW 1007,7 64 0 0,0
21.09.2018 13:00:00 13,6 10,3 13,0 18,2 19,3 17,8 24 13 68 37 WSW 1007,8 67 0 0,9
21.09.2018 12:00:00 15,6 13,1 14,8 19,8 19,3 17,8 46 25 73 40 W 1005,9 9 0 0,2
21.09.2018 11:00:00 22,6 11,6 23,0 20,1 19,2 17,8 32 18 59 32 SSW 1003,5 41 1 0,0
21.09.2018 10:00:00 22,6 12,0 22,5 19,6 19,1 17,8 29 16 60 32 SW 1003,9 41 3 0,0
21.09.2018 09:00:00 23,0 12,4 22,5 19,0 19,1 17,8 35 19 59 32 SSW 1003,4 37 6 0,0
21.09.2018 08:00:00 22,4 11,8 21,7 18,5 19,1 17,8 23 13 40 22 S 1004,1 58 0 0,0
21.09.2018 07:00:00 22,1 11,5 20,7 18,3 19,2 17,8 19 10 34 18 S 1004,4 54 0 0,0
21.09.2018 06:00:00 22,3 11,6 20,7 18,1 19,3 17,8 14 8 29 16 S 1005,5 53 0 0,0
21.09.2018 05:00:00 22,0 11,9 20,0 17,9 19,5 17,8 17 9 28 15 S 1006,7 51 0 0,0
21.09.2018 04:00:00 19,7 11,8 16,6 17,8 19,8 17,7 8 4 17 9 S 1007,8 48 0 0,0
21.09.2018 03:00:00 18,6 10,6 13,9 18,4 20,0 17,7 3 2 17 9 S 1008,7 54 0 0,0
21.09.2018 02:00:00 20,8 10,7 18,5 18,8 20,2 17,7 11 6 16 9 SSE 1009,2 56 0 0,0
21.09.2018 01:00:00 21,3 10,1 18,6 19,2 20,5 17,7 8 5 20 11 S 1010,2 60 0 0,0
21.09.2018 00:00:00 19,7 9,8 16,3 19,4 20,8 17,7 8 4 15 8 SW 1011,0 68 0 0,0
20.09.2018 23:00:00 21,1 9,5 18,7 19,9 21,1 17,7 10 6 14 8 S 1011,6 63 0 0,0
20.09.2018 22:00:00 19,7 10,0 15,6 20,6 21,5 17,7 5 3 10 5 S 1012,3 47 0 0,0
20.09.2018 21:00:00 21,0 10,4 15,7 21,5 21,8 17,7 6 3 10 5 SSE 1012,4 34 0 0,0
20.09.2018 20:00:00 23,0 10,3 18,6 22,8 22,0 17,7 6 4 14 8 SSW 1012,7 70 8 0,0
20.09.2018 19:00:00 25,7 9,9 24,4 24,4 22,0 17,7 11 6 28 15 SW 1013,1 68 60 0,0
20.09.2018 18:00:00 26,3 9,6 26,4 25,6 21,9 17,7 18 10 34 18 SW 1013,8 51 60 0,0
20.09.2018 17:00:00 26,6 9,9 28,0 26,5 21,5 17,7 23 12 34 19 SSW 1014,4 33 59 0,0
20.09.2018 16:00:00 26,7 11,1 28,8 26,6 21,0 17,7 22 12 37 20 SSW 1015,0 32 60 0,0
20.09.2018 15:00:00 26,3 11,1 29,7 25,9 20,4 17,7 16 9 35 19 WSW 1015,8 28 60 0,0
20.09.2018 14:00:00 25,0 10,9 27,9 25,1 19,9 17,7 25 13 40 22 SW 1016,3 43 53 0,0
20.09.2018 13:00:00 24,9 12,1 28,6 23,6 19,3 17,7 23 13 41 22 WSW 1016,7 29 45 0,0
20.09.2018 12:00:00 24,4 12,8 28,1 22,6 18,8 17,7 22 12 36 20 SW 1017,2 25 60 0,0
20.09.2018 11:00:00 23,1 12,6 25,9 20,5 18,5 17,7 20 11 32 17 SSW 1017,7 29 60 0,0
20.09.2018 10:00:00 20,9 12,5 23,0 18,5 18,3 17,6 15 8 25 14 SSW 1017,8 31 60 0,0
20.09.2018 09:00:00 19,2 12,3 20,1 17,1 18,4 17,6 8 4 19 11 S 1017,9 39 60 0,0
20.09.2018 08:00:00 17,1 11,7 16,2 16,5 18,6 17,6 12 7 20 11 S 1018,0 31 3 0,0
20.09.2018 07:00:00 16,7 11,5 14,0 16,6 18,9 17,6 8 4 11 6 S 1018,1 33 0 0,0
20.09.2018 06:00:00 16,6 11,4 14,0 16,9 19,1 17,6 8 5 11 6 S 1018,0 36 0 0,0
20.09.2018 05:00:00 17,1 11,5 14,5 17,3 19,4 17,6 7 4 10 5 S 1018,1 36 0 0,0
20.09.2018 04:00:00 17,8 11,7 15,0 17,8 19,7 17,6 7 4 10 6 S 1018,0 36 0 0,0
20.09.2018 03:00:00 16,7 11,4 14,0 18,0 20,0 17,6 6 3 9 5 SSW 1018,1 36 0 0,0
20.09.2018 02:00:00 16,9 11,4 14,5 18,5 20,3 17,6 6 4 11 6 SSW 1018,6 35 0 0,0
20.09.2018 01:00:00 17,9 11,5 15,0 19,0 20,6 17,6 6 3 10 6 S 1018,8 35 0 0,0
20.09.2018 00:00:00 16,9 11,5 14,7 19,7 21,0 17,6 8 5 10 5 SSW 1018,9 36 0 0,0
19.09.2018 23:00:00 19,5 11,7 16,7 20,5 21,3 17,6 7 4 15 8 SW 1018,4 41 0 0,0
19.09.2018 22:00:00 21,4 11,9 19,0 21,3 21,6 17,6 10 6 23 12 W 1018,0 42 0 0,0
19.09.2018 21:00:00 22,9 12,4 20,1 22,2 21,8 17,6 10 6 25 13 WSW 1017,0 56 0 0,0
19.09.2018 20:00:00 24,7 12,6 22,6 23,4 22,0 17,6 13 7 30 16 W 1016,1 58 1 0,0
19.09.2018 19:00:00 27,1 12,0 26,0 24,7 21,9 17,6 16 8 37 20 WSW 1015,6 65 58 0,0
19.09.2018 18:00:00 27,8 12,1 27,8 25,9 21,7 17,6 20 11 42 23 SW 1015,2 43 59 0,0
19.09.2018 17:00:00 28,7 12,5 30,4 26,3 21,3 17,6 21 11 41 22 SSW 1015,2 43 53 0,0
19.09.2018 16:00:00 28,1 13,0 30,6 26,4 20,8 17,6 21 11 44 24 SW 1015,7 31 54 0,0
19.09.2018 15:00:00 28,2 14,2 31,4 25,5 20,3 17,6 18 10 42 23 WSW 1016,2 36 37 0,0
19.09.2018 14:00:00 26,5 13,2 28,0 24,4 19,8 17,6 26 14 38 21 SW 1016,6 43 24 0,0
19.09.2018 13:00:00 26,1 13,6 29,6 24,6 19,2 17,5 21 12 38 21 WSW 1016,9 40 54 0,0
19.09.2018 12:00:00 25,5 13,7 29,1 22,7 18,7 17,5 21 12 36 20 SSW 1017,3 25 60 0,0
19.09.2018 11:00:00 23,5 14,1 26,5 20,6 18,3 17,5 14 7 24 13 S 1017,7 29 60 0,0
19.09.2018 10:00:00 20,5 12,6 22,6 18,4 18,2 17,5 10 5 14 8 SSE 1017,8 28 60 0,0
19.09.2018 09:00:00 17,8 12,3 18,2 17,0 18,3 17,5 9 5 13 7 SE 1017,9 30 12 0,0
19.09.2018 08:00:00 15,9 11,9 14,7 16,6 18,5 17,5 4 2 8 5 SSE 1018,1 26 0 0,0
19.09.2018 07:00:00 15,7 11,8 14,3 16,5 18,8 17,5 6 3 9 5 S 1018,2 27 0 0,0
19.09.2018 06:00:00 14,8 11,9 10,6 16,9 19,0 17,5 0 0 6 4 N 1017,9 24 0 0,0
19.09.2018 05:00:00 16,4 11,9 14,4 17,5 19,3 17,5 6 3 8 4 S 1018,0 30 0 0,0
19.09.2018 04:00:00 16,0 11,7 13,7 17,7 19,6 17,5 4 2 11 6 SW 1017,8 32 0 0,0
19.09.2018 03:00:00 15,8 11,3 13,2 17,9 19,9 17,5 6 3 10 5 SSW 1017,4 30 0 0,0
19.09.2018 02:00:00 16,4 11,3 12,2 18,5 20,3 17,5 7 4 14 7 W 1017,0 36 0 0,0
19.09.2018 01:00:00 17,0 11,1 13,4 19,3 20,6 17,5 4 2 7 4 SSW 1016,7 41 0 0,0
19.09.2018 00:00:00 19,0 11,2 15,5 20,0 21,0 17,5 5 3 10 5 SSW 1016,2 48 0 0,0
18.09.2018 23:00:00 20,8 10,7 16,0 20,8 21,4 17,5 6 3 18 10 W 1016,0 52 0 0,0
18.09.2018 22:00:00 23,1 10,5 20,3 21,8 21,7 17,5 11 6 27 15 WSW 1015,2 48 0 0,0
18.09.2018 21:00:00 24,5 10,4 22,0 22,8 21,9 17,5 14 7 22 12 W 1014,1 67 0 0,0
18.09.2018 20:00:00 26,7 9,7 24,2 24,2 22,1 17,5 10 5 33 18 WSW 1012,7 70 14 0,0
18.09.2018 19:00:00 29,2 8,7 28,0 25,7 22,0 17,5 19 10 39 21 WSW 1012,0 70 60 0,0
18.09.2018 18:00:00 30,9 8,1 31,2 26,9 21,7 17,5 24 13 41 22 W 1011,5 31 60 0,0
18.09.2018 17:00:00 31,6 9,3 32,8 27,7 21,3 17,5 23 12 42 23 SW 1011,1 28 60 0,0
18.09.2018 16:00:00 31,6 10,9 33,8 27,9 20,6 17,5 24 13 42 23 SW 1011,0 25 60 0,0
18.09.2018 15:00:00 31,1 10,8 33,8 27,5 19,8 17,5 26 14 50 27 SSW 1011,5 16 60 0,0
18.09.2018 14:00:00 30,8 13,2 34,1 26,4 19,0 17,5 27 15 43 23 SW 1011,9 21 60 0,0
18.09.2018 13:00:00 30,9 11,2 34,2 24,7 18,2 17,5 24 13 37 20 SW 1011,8 30 60 0,0
18.09.2018 12:00:00 29,1 9,6 32,4 22,5 17,5 17,5 16 9 34 18 S 1012,3 35 58 0,0
18.09.2018 11:00:00 27,0 9,7 29,3 20,1 17,0 17,5 20 11 36 19 S 1012,4 34 60 0,0
18.09.2018 10:00:00 24,8 9,9 26,3 17,7 16,8 17,5 19 10 30 16 S 1012,8 34 60 0,0
18.09.2018 09:00:00 21,1 9,1 21,6 15,9 16,8 17,5 15 8 22 12 SSE 1013,0 34 60 0,0
18.09.2018 08:00:00 19,1 8,2 17,6 15,0 16,9 17,5 12 7 24 13 S 1013,1 38 7 0,0
18.09.2018 07:00:00 18,6 7,9 15,7 14,9 17,1 17,5 10 5 18 10 S 1013,2 58 0 0,0
18.09.2018 06:00:00 18,3 7,4 16,1 15,0 17,3 17,5 14 8 20 11 SSE 1013,6 56 0 0,0
18.09.2018 05:00:00 17,0 7,5 14,3 15,1 17,5 17,6 10 5 18 10 SSE 1014,0 54 0 0,0
18.09.2018 04:00:00 16,4 7,5 12,7 15,3 17,8 17,6 9 5 22 12 SE 1014,4 55 0 0,0
18.09.2018 03:00:00 14,2 7,6 11,2 15,7 18,1 17,6 11 6 17 9 SSE 1014,8 47 0 0,0
18.09.2018 02:00:00 15,6 7,8 10,5 16,1 18,5 17,6 6 3 11 6 E 1015,1 49 0 0,0
18.09.2018 01:00:00 15,5 8,3 10,6 16,6 18,9 17,6 8 4 9 5 ESE 1015,7 51 0 0,0
18.09.2018 00:00:00 16,1 8,0 11,0 17,3 19,2 17,6 3 2 11 6 ESE 1015,9 55 0 0,0
17.09.2018 23:00:00 16,5 9,0 11,1 18,0 19,7 17,6 4 2 9 5 SSE 1016,1 53 0 0,0
17.09.2018 22:00:00 16,0 8,5 11,4 18,9 20,1 17,6 0 0 0 0 N 1016,4 51 0 0,0
17.09.2018 21:00:00 18,7 8,0 12,9 20,2 20,4 17,6 0 0 0 0 N 1016,5 56 0 0,0
17.09.2018 20:00:00 21,4 7,2 16,4 21,9 20,6 17,6 0 0 5 3 N 1016,5 70 0 0,0
17.09.2018 19:00:00 25,2 6,2 23,5 23,8 20,5 17,6 5 3 13 7 WNW 1016,3 70 56 0,0
17.09.2018 18:00:00 27,4 3,9 28,6 25,3 20,2 17,6 4 2 10 5 S 1016,5 70 60 0,0
17.09.2018 17:00:00 27,3 4,0 29,6 25,7 19,6 17,6 8 4 17 9 WSW 1017,1 70 60 0,0
17.09.2018 16:00:00 26,9 5,7 29,0 25,5 19,0 17,6 10 6 19 10 SW 1017,7 60 60 0,0
17.09.2018 15:00:00 26,3 6,6 29,7 25,1 18,2 17,6 4 2 20 11 SSW 1018,3 56 60 0,0
17.09.2018 14:00:00 25,1 7,9 28,2 23,6 17,5 17,6 11 6 22 12 SW 1018,9 56 60 0,0
17.09.2018 13:00:00 24,1 8,5 27,7 22,3 16,7 17,6 10 5 29 15 WSW 1019,4 53 60 0,0
17.09.2018 12:00:00 23,0 8,9 27,0 20,0 16,1 17,6 8 5 14 7 SSW 1019,9 61 60 0,0
17.09.2018 11:00:00 21,1 8,4 24,0 17,9 15,6 17,6 8 5 14 8 SW 1020,2 55 56 0,0
17.09.2018 10:00:00 18,1 9,6 20,3 15,3 15,4 17,6 6 3 8 5 SSE 1020,6 31 60 0,0
17.09.2018 09:00:00 14,1 9,9 15,5 13,4 15,5 17,6 0 0 0 0 N 1020,7 31 35 0,0
17.09.2018 08:00:00 11,6 7,6 9,2 12,6 15,7 17,6 0 0 9 5 N 1020,4 36 1 0,0
17.09.2018 07:00:00 9,2 7,0 6,0 12,6 16,0 17,7 0 0 5 3 N 1020,3 28 0 0,0
17.09.2018 06:00:00 9,9 6,9 6,2 13,0 16,2 17,7 3 1 7 4 WNW 1020,2 37 0 0,0
17.09.2018 05:00:00 11,7 7,7 6,7 13,4 16,5 17,7 0 0 11 6 N 1019,9 40 0 0,0
17.09.2018 04:00:00 10,7 7,5 7,8 13,7 16,9 17,7 5 3 7 4 S 1020,3 37 0 0,0
17.09.2018 03:00:00 9,9 7,4 7,5 14,2 17,2 17,7 5 3 7 4 SSE 1020,1 36 0 0,0
17.09.2018 02:00:00 11,0 8,5 7,4 14,7 17,6 17,7 2 1 9 5 S 1020,1 43 0 0,0
17.09.2018 01:00:00 11,4 8,8 8,2 15,5 18,0 17,7 2 1 7 4 SSE 1020,2 40 0 0,0
17.09.2018 00:00:00 13,2 9,6 9,1 16,4 18,3 17,7 0 0 0 0 N 1020,4 45 0 0,0
16.09.2018 23:00:00 14,0 9,3 11,9 17,1 18,6 17,7 0 0 6 3 N 1020,6 59 0 0,0

tt = temperature
td = dewpoint
tt 5cm = temperature 5cm
tt -5cm = temperature -5cm
tt -20cm = temperature -20cm
tt -100cm = temperature -100cm
ff = wind speed
fx = gusts
dd = wind direction
ppp = reduced air pressure
vv = visibility
sd = sunshine duration
rr = precipitation

Next stations